#datetime,building,power
2024-03-05T00:01:00,pth,8.40
2024-03-05T00:02:00,pth,2.40
2024-03-05T00:04:00,pth,4.80
2024-03-05T00:06:00,pth,4.80
2024-03-05T00:07:00,pth,2.40
2024-03-05T00:08:00,pth,2.40
2024-03-05T00:10:00,pth,4.80
2024-03-05T00:11:00,pth,2.40
2024-03-05T00:13:00,pth,3.60
2024-03-05T00:14:00,pth,2.40
2024-03-05T00:15:00,pth,2.40
2024-03-05T00:17:00,pth,4.80
2024-03-05T00:19:00,pth,3.60
2024-03-05T00:21:00,pth,4.80
2024-03-05T00:22:00,pth,2.40
2024-03-05T00:24:00,pth,4.80
2024-03-05T00:26:00,pth,4.80
2024-03-05T00:28:00,pth,4.80
2024-03-05T00:29:00,pth,2.40
2024-03-05T00:31:00,pth,4.80
2024-03-05T00:32:00,pth,4.80
2024-03-05T00:34:00,pth,2.40
2024-03-05T00:36:00,pth,4.80
2024-03-05T00:37:00,pth,2.40
2024-03-05T00:38:00,pth,2.40
2024-03-05T00:40:00,pth,4.80
2024-03-05T00:41:00,pth,2.40
2024-03-05T00:43:00,pth,3.60
2024-03-05T00:44:00,pth,2.40
2024-03-05T00:46:00,pth,4.80
2024-03-05T00:48:00,pth,4.80
2024-03-05T00:50:00,pth,6.00
2024-03-05T00:52:00,pth,2.40
2024-03-05T00:54:00,pth,4.80
2024-03-05T00:55:00,pth,2.40
2024-03-05T00:56:00,pth,7.20
2024-03-05T00:59:00,pth,6.00
2024-03-05T01:00:00,pth,2.40
2024-03-05T01:02:00,pth,4.80
2024-03-05T01:04:00,pth,4.80
2024-03-05T01:05:00,pth,2.40
2024-03-05T01:07:00,pth,4.80
2024-03-05T01:08:00,pth,6.00
2024-03-05T01:10:00,pth,2.40
2024-03-05T01:12:00,pth,4.80
2024-03-05T01:14:00,pth,4.80
2024-03-05T01:16:00,pth,4.80
2024-03-05T01:18:00,pth,4.80
2024-03-05T01:20:00,pth,4.80
2024-03-05T01:21:00,pth,1.20
2024-03-05T01:23:00,pth,4.80
2024-03-05T01:25:00,pth,4.80
2024-03-05T01:26:00,pth,3.60
2024-03-05T01:28:00,pth,4.80
2024-03-05T01:29:00,pth,2.40
2024-03-05T01:31:00,pth,4.80
2024-03-05T01:32:00,pth,2.40
2024-03-05T01:34:00,pth,4.80
2024-03-05T01:35:00,pth,2.40
2024-03-05T01:37:00,pth,4.80
2024-03-05T01:38:00,pth,2.40
2024-03-05T01:40:00,pth,4.80
2024-03-05T01:42:00,pth,4.80
2024-03-05T01:44:00,pth,4.80
2024-03-05T01:46:00,pth,4.80
2024-03-05T01:48:00,pth,4.80
2024-03-05T01:49:00,pth,1.20
2024-03-05T01:50:00,pth,2.40
2024-03-05T01:52:00,pth,4.80
2024-03-05T01:53:00,pth,2.40
2024-03-05T01:54:00,pth,2.40
2024-03-05T01:56:00,pth,4.80
2024-03-05T01:58:00,pth,4.80
2024-03-05T01:59:00,pth,2.40
2024-03-05T02:00:00,pth,2.40
2024-03-05T02:01:00,pth,4.80
2024-03-05T02:04:00,pth,3.60
2024-03-05T02:06:00,pth,4.80
2024-03-05T02:07:00,pth,1.20
2024-03-05T02:09:00,pth,4.80
2024-03-05T02:11:00,pth,4.80
2024-03-05T02:13:00,pth,4.80
2024-03-05T02:15:00,pth,4.80
2024-03-05T02:16:00,pth,2.40
2024-03-05T02:18:00,pth,4.80
2024-03-05T02:19:00,pth,3.60
2024-03-05T02:22:00,pth,4.80
2024-03-05T02:24:00,pth,4.80
2024-03-05T02:25:00,pth,4.80
2024-03-05T02:27:00,pth,1.20
2024-03-05T02:29:00,pth,4.80
2024-03-05T02:31:00,pth,6.00
2024-03-05T02:34:00,pth,4.80
2024-03-05T02:35:00,pth,2.40
2024-03-05T02:37:00,pth,7.20
2024-03-05T02:40:00,pth,3.60
2024-03-05T02:42:00,pth,4.80
2024-03-05T02:43:00,pth,4.80
2024-03-05T02:45:00,pth,2.40
2024-03-05T02:47:00,pth,4.80
2024-03-05T02:49:00,pth,4.80
2024-03-05T02:51:00,pth,3.60
2024-03-05T02:53:00,pth,4.80
2024-03-05T02:55:00,pth,3.60
2024-03-05T02:56:00,pth,2.40
2024-03-05T02:58:00,pth,4.80
2024-03-05T02:59:00,pth,2.40
2024-03-05T03:01:00,pth,3.60
2024-03-05T03:03:00,pth,4.80
2024-03-05T03:04:00,pth,1.20
2024-03-05T03:06:00,pth,4.80
2024-03-05T03:08:00,pth,4.80
2024-03-05T03:10:00,pth,3.60
2024-03-05T03:11:00,pth,2.40
2024-03-05T03:12:00,pth,2.40
2024-03-05T03:14:00,pth,3.60
2024-03-05T03:16:00,pth,3.60
2024-03-05T03:18:00,pth,4.80
2024-03-05T03:20:00,pth,3.60
2024-03-05T03:22:00,pth,4.80
2024-03-05T03:24:00,pth,3.60
2024-03-05T03:26:00,pth,4.80
2024-03-05T03:28:00,pth,3.60
2024-03-05T03:30:00,pth,4.80
2024-03-05T03:31:00,pth,2.40
2024-03-05T03:33:00,pth,3.60
2024-03-05T03:34:00,pth,2.40
2024-03-05T03:36:00,pth,3.60
2024-03-05T03:37:00,pth,2.40
2024-03-05T03:38:00,pth,2.40
2024-03-05T03:40:00,pth,3.60
2024-03-05T03:42:00,pth,3.60
2024-03-05T03:44:00,pth,4.80
2024-03-05T03:46:00,pth,3.60
2024-03-05T03:47:00,pth,2.40
2024-03-05T03:48:00,pth,3.60
2024-03-05T03:51:00,pth,4.80
2024-03-05T03:53:00,pth,4.80
2024-03-05T03:54:00,pth,3.60
2024-03-05T03:56:00,pth,2.40
2024-03-05T03:58:00,pth,4.80
2024-03-05T03:59:00,pth,1.20
2024-03-05T04:00:00,pth,4.80
2024-03-05T04:02:00,pth,2.40
2024-03-05T04:03:00,pth,2.40
2024-03-05T04:05:00,pth,3.60
2024-03-05T04:06:00,pth,2.40
2024-03-05T04:08:00,pth,4.80
2024-03-05T04:10:00,pth,3.60
2024-03-05T04:12:00,pth,4.80
2024-03-05T04:14:00,pth,3.60
2024-03-05T04:15:00,pth,2.40
2024-03-05T04:17:00,pth,4.80
2024-03-05T04:18:00,pth,4.80
2024-03-05T04:21:00,pth,3.60
2024-03-05T04:22:00,pth,2.40
2024-03-05T04:24:00,pth,7.20
2024-03-05T04:27:00,pth,4.80
2024-03-05T04:29:00,pth,3.60
2024-03-05T04:30:00,pth,2.40
2024-03-05T04:31:00,pth,2.40
2024-03-05T04:32:00,pth,2.40
2024-03-05T04:34:00,pth,4.80
2024-03-05T04:35:00,pth,2.40
2024-03-05T04:37:00,pth,3.60
2024-03-05T04:38:00,pth,2.40
2024-03-05T04:40:00,pth,3.60
2024-03-05T04:42:00,pth,4.80
2024-03-05T04:44:00,pth,3.60
2024-03-05T04:45:00,pth,2.40
2024-03-05T04:46:00,pth,2.40
2024-03-05T04:48:00,pth,3.60
2024-03-05T04:49:00,pth,2.40
2024-03-05T04:51:00,pth,3.60
2024-03-05T04:53:00,pth,4.80
2024-03-05T04:54:00,pth,2.40
2024-03-05T04:56:00,pth,3.60
2024-03-05T04:57:00,pth,2.40
2024-03-05T04:59:00,pth,4.80
2024-03-05T05:01:00,pth,3.60
2024-03-05T05:02:00,pth,2.40
2024-03-05T05:04:00,pth,3.60
2024-03-05T05:05:00,pth,2.40
2024-03-05T05:06:00,pth,2.40
2024-03-05T05:08:00,pth,3.60
2024-03-05T05:10:00,pth,4.80
2024-03-05T05:11:00,pth,1.20
2024-03-05T05:12:00,pth,2.40
2024-03-05T05:14:00,pth,4.80
2024-03-05T05:15:00,pth,1.20
2024-03-05T05:17:00,pth,4.80
2024-03-05T05:19:00,pth,3.60
2024-03-05T05:21:00,pth,3.60
2024-03-05T05:22:00,pth,2.40
2024-03-05T05:24:00,pth,3.60
2024-03-05T05:26:00,pth,4.80
2024-03-05T05:28:00,pth,4.80
2024-03-05T05:29:00,pth,1.20
2024-03-05T05:30:00,pth,2.40
2024-03-05T05:32:00,pth,3.60
2024-03-05T05:34:00,pth,4.80
2024-03-05T05:36:00,pth,3.60
2024-03-05T05:37:00,pth,2.40
2024-03-05T05:38:00,pth,1.20
2024-03-05T05:40:00,pth,4.80
2024-03-05T05:41:00,pth,1.20
2024-03-05T05:43:00,pth,4.80
2024-03-05T05:45:00,pth,3.60
2024-03-05T05:46:00,pth,2.40
2024-03-05T05:47:00,pth,3.60
2024-03-05T05:50:00,pth,4.80
2024-03-05T05:52:00,pth,3.60
2024-03-05T05:53:00,pth,4.80
2024-03-05T05:56:00,pth,3.60
2024-03-05T05:57:00,pth,2.40
2024-03-05T05:58:00,pth,2.40
2024-03-05T05:59:00,pth,4.80
2024-03-05T06:02:00,pth,3.60
2024-03-05T06:04:00,pth,4.80
2024-03-05T06:05:00,pth,1.20
2024-03-05T06:07:00,pth,3.60
2024-03-05T06:09:00,pth,4.80
2024-03-05T06:11:00,pth,6.00
2024-03-05T06:13:00,pth,2.40
2024-03-05T06:15:00,pth,3.60
2024-03-05T06:17:00,pth,3.60
2024-03-05T06:18:00,pth,2.40
2024-03-05T06:20:00,pth,3.60
2024-03-05T06:22:00,pth,4.80
2024-03-05T06:23:00,pth,1.20
2024-03-05T06:25:00,pth,4.80
2024-03-05T06:27:00,pth,3.60
2024-03-05T06:29:00,pth,4.80
2024-03-05T06:30:00,pth,2.40
2024-03-05T06:31:00,pth,2.40
2024-03-05T06:33:00,pth,4.80
2024-03-05T06:35:00,pth,4.80
2024-03-05T06:37:00,pth,3.60
2024-03-05T06:38:00,pth,2.40
2024-03-05T06:39:00,pth,2.40
2024-03-05T06:41:00,pth,3.60
2024-03-05T06:42:00,pth,2.40
2024-03-05T06:43:00,pth,2.40
2024-03-05T06:45:00,pth,4.80
2024-03-05T06:46:00,pth,1.20
2024-03-05T06:48:00,pth,4.80
2024-03-05T06:50:00,pth,3.60
2024-03-05T06:51:00,pth,2.40
2024-03-05T06:52:00,pth,1.20
2024-03-05T06:54:00,pth,4.80
2024-03-05T06:55:00,pth,1.20
2024-03-05T06:56:00,pth,2.40
2024-03-05T06:58:00,pth,7.20
2024-03-05T06:59:00,pth,2.40
2024-03-05T07:01:00,pth,4.80
2024-03-05T07:03:00,pth,3.60
2024-03-05T07:04:00,pth,2.40
2024-03-05T07:05:00,pth,2.40
2024-03-05T07:07:00,pth,3.60
2024-03-05T07:08:00,pth,2.40
2024-03-05T07:10:00,pth,3.60
2024-03-05T07:12:00,pth,3.60
2024-03-05T07:14:00,pth,3.60
2024-03-05T07:15:00,pth,2.40
2024-03-05T07:17:00,pth,3.60
2024-03-05T07:19:00,pth,3.60
2024-03-05T07:21:00,pth,3.60
2024-03-05T07:22:00,pth,2.40
2024-03-05T07:23:00,pth,1.20
2024-03-05T07:25:00,pth,4.80
2024-03-05T07:26:00,pth,1.20
2024-03-05T07:28:00,pth,3.60
2024-03-05T07:30:00,pth,4.80
2024-03-05T07:31:00,pth,1.20
2024-03-05T07:33:00,pth,4.80
2024-03-05T07:35:00,pth,3.60
2024-03-05T07:36:00,pth,1.20
2024-03-05T07:38:00,pth,3.60
2024-03-05T07:40:00,pth,3.60
2024-03-05T07:42:00,pth,4.80
2024-03-05T07:44:00,pth,3.60
2024-03-05T07:46:00,pth,3.60
2024-03-05T07:47:00,pth,2.40
2024-03-05T07:49:00,pth,3.60
2024-03-05T07:50:00,pth,2.40
2024-03-05T07:52:00,pth,2.40
2024-03-05T07:54:00,pth,3.60
2024-03-05T07:55:00,pth,2.40
2024-03-05T07:57:00,pth,3.60
2024-03-05T07:58:00,pth,2.40
2024-03-05T08:00:00,pth,3.60
2024-03-05T08:01:00,pth,1.20
2024-03-05T08:02:00,pth,2.40
2024-03-05T08:04:00,pth,3.60
2024-03-05T08:06:00,pth,6.00
2024-03-05T08:07:00,pth,2.40
2024-03-05T08:09:00,pth,4.80
2024-03-05T08:10:00,pth,2.40
2024-03-05T08:12:00,pth,3.60
2024-03-05T08:13:00,pth,2.40
2024-03-05T08:15:00,pth,3.60
2024-03-05T08:16:00,pth,4.80
2024-03-05T08:19:00,pth,3.60
2024-03-05T08:21:00,pth,3.60
2024-03-05T08:22:00,pth,2.40
2024-03-05T08:24:00,pth,4.80
2024-03-05T08:25:00,pth,1.20
2024-03-05T08:27:00,pth,4.80
2024-03-05T08:28:00,pth,3.60
2024-03-05T08:31:00,pth,4.80
2024-03-05T08:33:00,pth,3.60
2024-03-05T08:35:00,pth,4.80
2024-03-05T08:36:00,pth,2.40
2024-03-05T08:38:00,pth,4.80
2024-03-05T08:40:00,pth,3.60
2024-03-05T08:41:00,pth,2.40
2024-03-05T08:43:00,pth,3.60
2024-03-05T08:45:00,pth,4.80
2024-03-05T08:47:00,pth,3.60
2024-03-05T08:48:00,pth,2.40
2024-03-05T08:50:00,pth,4.80
2024-03-05T08:52:00,pth,6.00
2024-03-05T08:54:00,pth,6.00
2024-03-05T08:55:00,pth,3.60
2024-03-05T08:57:00,pth,6.00
2024-03-05T08:59:00,pth,6.00
2024-03-05T09:01:00,pth,4.80
2024-03-05T09:03:00,pth,6.00
2024-03-05T09:05:00,pth,15.60
2024-03-05T09:06:00,pth,8.40
2024-03-05T09:08:00,pth,14.40
2024-03-05T09:09:00,pth,7.20
2024-03-05T09:10:00,pth,8.40
2024-03-05T09:12:00,pth,14.40
2024-03-05T09:14:00,pth,15.60
2024-03-05T09:15:00,pth,7.20
2024-03-05T09:17:00,pth,15.60
2024-03-05T09:18:00,pth,7.20
2024-03-05T09:20:00,pth,14.40
2024-03-05T09:21:00,pth,8.40
2024-03-05T09:22:00,pth,8.40
2024-03-05T09:24:00,pth,15.60
2024-03-05T09:26:00,pth,15.60
2024-03-05T09:28:00,pth,16.80
2024-03-05T09:29:00,pth,7.20
2024-03-05T09:31:00,pth,14.40
2024-03-05T09:32:00,pth,8.40
2024-03-05T09:33:00,pth,7.20
2024-03-05T09:34:00,pth,7.20
2024-03-05T09:36:00,pth,15.60
2024-03-05T09:37:00,pth,7.20
2024-03-05T09:39:00,pth,15.60
2024-03-05T09:40:00,pth,7.20
2024-03-05T09:42:00,pth,15.60
2024-03-05T09:43:00,pth,7.20
2024-03-05T09:45:00,pth,15.60
2024-03-05T09:47:00,pth,16.80
2024-03-05T09:48:00,pth,8.40
2024-03-05T09:50:00,pth,16.80
2024-03-05T09:51:00,pth,9.60
2024-03-05T09:53:00,pth,16.80
2024-03-05T09:55:00,pth,16.80
2024-03-05T09:56:00,pth,8.40
2024-03-05T09:58:00,pth,15.60
2024-03-05T09:59:00,pth,2.40
2024-03-05T10:00:00,pth,8.40
2024-03-05T10:02:00,pth,13.20
2024-03-05T10:03:00,pth,6.00
2024-03-05T10:05:00,pth,2.40
2024-03-05T10:07:00,pth,4.80
2024-03-05T10:09:00,pth,7.20
2024-03-05T10:11:00,pth,2.40
2024-03-05T10:13:00,pth,3.60
2024-03-05T10:14:00,pth,2.40
2024-03-05T10:15:00,pth,7.20
2024-03-05T10:18:00,pth,6.00
2024-03-05T10:19:00,pth,2.40
2024-03-05T10:21:00,pth,6.00
2024-03-05T10:24:00,pth,4.80
2024-03-05T10:25:00,pth,4.80
2024-03-05T10:27:00,pth,15.60
2024-03-05T10:29:00,pth,15.60
2024-03-05T10:30:00,pth,7.20
2024-03-05T10:32:00,pth,15.60
2024-03-05T10:34:00,pth,15.60
2024-03-05T10:36:00,pth,15.60
2024-03-05T10:38:00,pth,15.60
2024-03-05T10:40:00,pth,16.80
2024-03-05T10:42:00,pth,15.60
2024-03-05T10:44:00,pth,14.40
2024-03-05T10:46:00,pth,16.80
2024-03-05T10:48:00,pth,15.60
2024-03-05T10:50:00,pth,16.80
2024-03-05T10:52:00,pth,18.00
2024-03-05T10:53:00,pth,8.40
2024-03-05T10:54:00,pth,7.20
2024-03-05T10:56:00,pth,15.60
2024-03-05T10:58:00,pth,14.40
2024-03-05T11:00:00,pth,12.00
2024-03-05T11:02:00,pth,9.60
2024-03-05T11:04:00,pth,15.60
2024-03-05T11:06:00,pth,15.60
2024-03-05T11:07:00,pth,7.20
2024-03-05T11:09:00,pth,15.60
2024-03-05T11:11:00,pth,15.60
2024-03-05T11:12:00,pth,8.40
2024-03-05T11:14:00,pth,15.60
2024-03-05T11:16:00,pth,15.60
2024-03-05T11:18:00,pth,16.80
2024-03-05T11:20:00,pth,22.80
2024-03-05T11:23:00,pth,15.60
2024-03-05T11:25:00,pth,7.20
2024-03-05T11:26:00,pth,3.60
2024-03-05T11:29:00,pth,4.80
2024-03-05T11:30:00,pth,2.40
2024-03-05T11:32:00,pth,7.20
2024-03-05T11:35:00,pth,3.60
2024-03-05T11:37:00,pth,3.60
2024-03-05T11:38:00,pth,2.40
2024-03-05T11:40:00,pth,3.60
2024-03-05T11:41:00,pth,2.40
2024-03-05T11:43:00,pth,4.80
2024-03-05T11:44:00,pth,7.20
2024-03-05T11:47:00,pth,6.00
2024-03-05T11:48:00,pth,2.40
2024-03-05T11:50:00,pth,13.20
2024-03-05T11:51:00,pth,7.20
2024-03-05T11:53:00,pth,14.40
2024-03-05T11:55:00,pth,15.60
2024-03-05T11:57:00,pth,15.60
2024-03-05T11:59:00,pth,15.60
2024-03-05T12:00:00,pth,7.20
2024-03-05T12:01:00,pth,8.40
2024-03-05T12:02:00,pth,7.20
2024-03-05T12:04:00,pth,16.80
2024-03-05T12:06:00,pth,15.60
2024-03-05T12:07:00,pth,7.20
2024-03-05T12:09:00,pth,15.60
2024-03-05T12:10:00,pth,8.40
2024-03-05T12:12:00,pth,15.60
2024-03-05T12:13:00,pth,7.20
2024-03-05T12:15:00,pth,14.40
2024-03-05T12:17:00,pth,15.60
2024-03-05T12:18:00,pth,8.40
2024-03-05T12:19:00,pth,7.20
2024-03-05T12:20:00,pth,8.40
2024-03-05T12:22:00,pth,14.40
2024-03-05T12:24:00,pth,15.60
2024-03-05T12:26:00,pth,15.60
2024-03-05T12:27:00,pth,7.20
2024-03-05T12:29:00,pth,14.40
2024-03-05T12:30:00,pth,7.20
2024-03-05T12:32:00,pth,15.60
2024-03-05T12:34:00,pth,9.60
2024-03-05T12:36:00,pth,4.80
2024-03-05T12:38:00,pth,13.20
2024-03-05T12:39:00,pth,7.20
2024-03-05T12:41:00,pth,15.60
2024-03-05T12:42:00,pth,7.20
2024-03-05T12:44:00,pth,14.40
2024-03-05T12:46:00,pth,4.80
2024-03-05T12:48:00,pth,4.80
2024-03-05T12:50:00,pth,3.60
2024-03-05T12:52:00,pth,4.80
2024-03-05T12:54:00,pth,3.60
2024-03-05T12:55:00,pth,3.60
2024-03-05T12:58:00,pth,3.60
2024-03-05T13:00:00,pth,3.60
2024-03-05T13:01:00,pth,3.60
2024-03-05T13:04:00,pth,4.80
2024-03-05T13:06:00,pth,3.60
2024-03-05T13:07:00,pth,4.80
2024-03-05T13:09:00,pth,2.40
2024-03-05T13:11:00,pth,4.80
2024-03-05T13:12:00,pth,2.40
2024-03-05T13:13:00,pth,2.40
2024-03-05T13:15:00,pth,4.80
2024-03-05T13:17:00,pth,4.80
2024-03-05T13:18:00,pth,2.40
2024-03-05T13:20:00,pth,4.80
2024-03-05T13:22:00,pth,3.60
2024-03-05T13:23:00,pth,2.40
2024-03-05T13:25:00,pth,3.60
2024-03-05T13:27:00,pth,3.60
2024-03-05T13:28:00,pth,2.40
2024-03-05T13:30:00,pth,3.60
2024-03-05T13:32:00,pth,4.80
2024-03-05T13:33:00,pth,2.40
2024-03-05T13:34:00,pth,1.20
2024-03-05T13:36:00,pth,8.40
2024-03-05T13:37:00,pth,7.20
2024-03-05T13:39:00,pth,14.40
2024-03-05T13:41:00,pth,15.60
2024-03-05T13:43:00,pth,14.40
2024-03-05T13:44:00,pth,7.20
2024-03-05T13:45:00,pth,8.40
2024-03-05T13:47:00,pth,14.40
2024-03-05T13:49:00,pth,15.60
2024-03-05T13:51:00,pth,15.60
2024-03-05T13:53:00,pth,15.60
2024-03-05T13:55:00,pth,15.60
2024-03-05T13:56:00,pth,7.20
2024-03-05T13:58:00,pth,15.60
2024-03-05T13:59:00,pth,7.20
2024-03-05T14:01:00,pth,15.60
2024-03-05T14:02:00,pth,7.20
2024-03-05T14:03:00,pth,7.20
2024-03-05T14:05:00,pth,15.60
2024-03-05T14:06:00,pth,2.40
2024-03-05T14:08:00,pth,14.40
2024-03-05T14:09:00,pth,7.20
2024-03-05T14:11:00,pth,9.60
2024-03-05T14:13:00,pth,14.40
2024-03-05T14:15:00,pth,9.60
2024-03-05T14:16:00,pth,6.00
2024-03-05T14:18:00,pth,13.20
2024-03-05T14:20:00,pth,10.80
2024-03-05T14:22:00,pth,13.20
2024-03-05T14:24:00,pth,9.60
2024-03-05T14:26:00,pth,10.80
2024-03-05T14:27:00,pth,2.40
2024-03-05T14:28:00,pth,8.40
2024-03-05T14:30:00,pth,9.60
2024-03-05T14:31:00,pth,3.60
2024-03-05T14:33:00,pth,14.40
2024-03-05T14:35:00,pth,4.80
2024-03-05T14:36:00,pth,3.60
2024-03-05T14:39:00,pth,3.60
2024-03-05T14:41:00,pth,3.60
2024-03-05T14:42:00,pth,4.80
2024-03-05T14:45:00,pth,3.60
2024-03-05T14:47:00,pth,3.60
2024-03-05T14:48:00,pth,2.40
2024-03-05T14:50:00,pth,3.60
2024-03-05T14:52:00,pth,2.40
2024-03-05T14:54:00,pth,3.60
2024-03-05T14:56:00,pth,3.60
2024-03-05T14:58:00,pth,3.60
2024-03-05T15:00:00,pth,3.60
2024-03-05T15:01:00,pth,2.40
2024-03-05T15:03:00,pth,3.60
2024-03-05T15:05:00,pth,3.60
2024-03-05T15:07:00,pth,4.80
2024-03-05T15:08:00,pth,1.20
2024-03-05T15:09:00,pth,2.40
2024-03-05T15:10:00,pth,1.20
2024-03-05T15:12:00,pth,3.60
2024-03-05T15:14:00,pth,4.80
2024-03-05T15:16:00,pth,3.60
2024-03-05T15:18:00,pth,3.60
2024-03-05T15:20:00,pth,3.60
2024-03-05T15:21:00,pth,2.40
2024-03-05T15:22:00,pth,2.40
2024-03-05T15:24:00,pth,3.60
2024-03-05T15:26:00,pth,4.80
2024-03-05T15:27:00,pth,2.40
2024-03-05T15:28:00,pth,2.40
2024-03-05T15:30:00,pth,3.60
2024-03-05T15:32:00,pth,4.80
2024-03-05T15:34:00,pth,4.80
2024-03-05T15:35:00,pth,3.60
2024-03-05T15:38:00,pth,4.80
2024-03-05T15:40:00,pth,3.60
2024-03-05T15:41:00,pth,4.80
2024-03-05T15:43:00,pth,1.20
2024-03-05T15:45:00,pth,3.60
2024-03-05T15:47:00,pth,7.20
2024-03-05T15:50:00,pth,4.80
2024-03-05T15:52:00,pth,9.60
2024-03-05T15:53:00,pth,16.80
2024-03-05T15:56:00,pth,14.40
2024-03-05T15:58:00,pth,14.40
2024-03-05T15:59:00,pth,15.60
2024-03-05T16:01:00,pth,7.20
2024-03-05T16:03:00,pth,15.60
2024-03-05T16:04:00,pth,7.20
2024-03-05T16:05:00,pth,7.20
2024-03-05T16:07:00,pth,15.60
2024-03-05T16:09:00,pth,15.60
2024-03-05T16:10:00,pth,7.20
2024-03-05T16:12:00,pth,14.40
2024-03-05T16:14:00,pth,15.60
2024-03-05T16:15:00,pth,7.20
2024-03-05T16:16:00,pth,4.80
2024-03-05T16:17:00,pth,14.40
2024-03-05T16:20:00,pth,10.80
2024-03-05T16:22:00,pth,15.60
2024-03-05T16:23:00,pth,10.80
2024-03-05T16:26:00,pth,9.60
2024-03-05T16:27:00,pth,7.20
2024-03-05T16:29:00,pth,9.60
2024-03-05T16:31:00,pth,13.20
2024-03-05T16:33:00,pth,9.60
2024-03-05T16:35:00,pth,9.60
2024-03-05T16:37:00,pth,12.00
2024-03-05T16:38:00,pth,4.80
2024-03-05T16:40:00,pth,10.80
2024-03-05T16:41:00,pth,6.00
2024-03-05T16:43:00,pth,8.40
2024-03-05T16:45:00,pth,13.20
2024-03-05T16:47:00,pth,10.80
2024-03-05T16:49:00,pth,7.20
2024-03-05T16:51:00,pth,4.80
2024-03-05T16:52:00,pth,2.40
2024-03-05T16:53:00,pth,1.20
2024-03-05T16:54:00,pth,2.40
2024-03-05T16:56:00,pth,3.60
2024-03-05T16:57:00,pth,2.40
2024-03-05T16:59:00,pth,3.60
2024-03-05T17:00:00,pth,2.40
2024-03-05T17:02:00,pth,4.80
2024-03-05T17:04:00,pth,9.60
2024-03-05T17:06:00,pth,15.60
2024-03-05T17:08:00,pth,15.60
2024-03-05T17:10:00,pth,15.60
2024-03-05T17:11:00,pth,7.20
2024-03-05T17:13:00,pth,15.60
2024-03-05T17:14:00,pth,7.20
2024-03-05T17:15:00,pth,8.40
2024-03-05T17:16:00,pth,15.60
2024-03-05T17:19:00,pth,15.60
2024-03-05T17:21:00,pth,14.40
2024-03-05T17:22:00,pth,8.40
2024-03-05T17:24:00,pth,12.00
2024-03-05T17:25:00,pth,8.40
2024-03-05T17:27:00,pth,10.80
2024-03-05T17:28:00,pth,13.20
2024-03-05T17:30:00,pth,4.80
2024-03-05T17:31:00,pth,8.40
2024-03-05T17:33:00,pth,12.00
2024-03-05T17:34:00,pth,6.00
2024-03-05T17:36:00,pth,12.00
2024-03-05T17:37:00,pth,3.60
2024-03-05T17:39:00,pth,10.80
2024-03-05T17:40:00,pth,10.80
2024-03-05T17:43:00,pth,12.00
2024-03-05T17:44:00,pth,4.80
2024-03-05T17:46:00,pth,10.80
2024-03-05T17:48:00,pth,12.00
2024-03-05T17:50:00,pth,10.80
2024-03-05T17:51:00,pth,6.00
2024-03-05T17:53:00,pth,10.80
2024-03-05T17:55:00,pth,10.80
2024-03-05T17:56:00,pth,6.00
2024-03-05T17:58:00,pth,10.80
2024-03-05T18:00:00,pth,10.80
2024-03-05T18:02:00,pth,4.80
2024-03-05T18:04:00,pth,3.60
2024-03-05T18:06:00,pth,4.80
2024-03-05T18:07:00,pth,2.40
2024-03-05T18:09:00,pth,3.60
2024-03-05T18:10:00,pth,2.40
2024-03-05T18:11:00,pth,2.40
2024-03-05T18:13:00,pth,4.80
2024-03-05T18:15:00,pth,9.60
2024-03-05T18:17:00,pth,16.80
2024-03-05T18:19:00,pth,15.60
2024-03-05T18:21:00,pth,15.60
2024-03-05T18:23:00,pth,15.60
2024-03-05T18:24:00,pth,8.40
2024-03-05T18:25:00,pth,7.20
2024-03-05T18:26:00,pth,8.40
2024-03-05T18:27:00,pth,15.60
2024-03-05T18:30:00,pth,15.60
2024-03-05T18:31:00,pth,8.40
2024-03-05T18:33:00,pth,15.60
2024-03-05T18:35:00,pth,15.60
2024-03-05T18:37:00,pth,15.60
2024-03-05T18:39:00,pth,15.60
2024-03-05T18:41:00,pth,14.40
2024-03-05T18:43:00,pth,16.80
2024-03-05T18:45:00,pth,15.60
2024-03-05T18:47:00,pth,16.80
2024-03-05T18:49:00,pth,14.40
2024-03-05T18:51:00,pth,15.60
2024-03-05T18:53:00,pth,15.60
2024-03-05T18:55:00,pth,15.60
2024-03-05T18:57:00,pth,14.40
2024-03-05T18:58:00,pth,8.40
2024-03-05T18:59:00,pth,7.20
2024-03-05T19:01:00,pth,15.60
2024-03-05T19:03:00,pth,15.60
2024-03-05T19:05:00,pth,15.60
2024-03-05T19:07:00,pth,16.80
2024-03-05T19:08:00,pth,7.20
2024-03-05T19:10:00,pth,16.80
2024-03-05T19:12:00,pth,15.60
2024-03-05T19:14:00,pth,12.00
2024-03-05T19:15:00,pth,2.40
2024-03-05T19:16:00,pth,2.40
2024-03-05T19:18:00,pth,4.80
2024-03-05T19:20:00,pth,4.80
2024-03-05T19:21:00,pth,2.40
2024-03-05T19:23:00,pth,4.80
2024-03-05T19:25:00,pth,4.80
2024-03-05T19:27:00,pth,4.80
2024-03-05T19:28:00,pth,2.40
2024-03-05T19:30:00,pth,4.80
2024-03-05T19:32:00,pth,4.80
2024-03-05T19:34:00,pth,4.80
2024-03-05T19:36:00,pth,4.80
2024-03-05T19:37:00,pth,3.60
2024-03-05T19:39:00,pth,4.80
2024-03-05T19:40:00,pth,2.40
2024-03-05T19:42:00,pth,4.80
2024-03-05T19:44:00,pth,4.80
2024-03-05T19:46:00,pth,4.80
2024-03-05T19:48:00,pth,4.80
2024-03-05T19:50:00,pth,4.80
2024-03-05T19:51:00,pth,2.40
2024-03-05T19:53:00,pth,10.80
2024-03-05T19:55:00,pth,15.60
2024-03-05T19:56:00,pth,15.60
2024-03-05T19:59:00,pth,15.60
2024-03-05T20:00:00,pth,7.20
2024-03-05T20:02:00,pth,15.60
2024-03-05T20:04:00,pth,16.80
2024-03-05T20:06:00,pth,18.00
2024-03-05T20:07:00,pth,8.40
2024-03-05T20:08:00,pth,18.00
2024-03-05T20:10:00,pth,9.60
2024-03-05T20:12:00,pth,16.80
2024-03-05T20:13:00,pth,9.60
2024-03-05T20:14:00,pth,15.60
2024-03-05T20:16:00,pth,8.40
2024-03-05T20:18:00,pth,16.80
2024-03-05T20:19:00,pth,8.40
2024-03-05T20:20:00,pth,8.40
2024-03-05T20:22:00,pth,16.80
2024-03-05T20:23:00,pth,8.40
2024-03-05T20:25:00,pth,16.80
2024-03-05T20:26:00,pth,8.40
2024-03-05T20:28:00,pth,16.80
2024-03-05T20:30:00,pth,16.80
2024-03-05T20:32:00,pth,16.80
2024-03-05T20:33:00,pth,8.40
2024-03-05T20:35:00,pth,16.80
2024-03-05T20:36:00,pth,8.40
2024-03-05T20:38:00,pth,16.80
2024-03-05T20:39:00,pth,8.40
2024-03-05T20:40:00,pth,8.40
2024-03-05T20:42:00,pth,16.80
2024-03-05T20:44:00,pth,16.80
2024-03-05T20:46:00,pth,16.80
2024-03-05T20:48:00,pth,18.00
2024-03-05T20:50:00,pth,18.00
2024-03-05T20:51:00,pth,8.40
2024-03-05T20:53:00,pth,8.40
2024-03-05T20:55:00,pth,8.40
2024-03-05T20:57:00,pth,8.40
2024-03-05T20:59:00,pth,6.00
2024-03-05T21:00:00,pth,3.60
2024-03-05T21:02:00,pth,6.00
2024-03-05T21:04:00,pth,7.20
2024-03-05T21:06:00,pth,16.80
2024-03-05T21:08:00,pth,18.00
2024-03-05T21:10:00,pth,16.80
2024-03-05T21:12:00,pth,18.00
2024-03-05T21:14:00,pth,16.80
2024-03-05T21:16:00,pth,18.00
2024-03-05T21:18:00,pth,18.00
2024-03-05T21:20:00,pth,16.80
2024-03-05T21:21:00,pth,8.40
2024-03-05T21:23:00,pth,16.80
2024-03-05T21:24:00,pth,9.60
2024-03-05T21:26:00,pth,16.80
2024-03-05T21:28:00,pth,18.00
2024-03-05T21:30:00,pth,16.80
2024-03-05T21:31:00,pth,9.60
2024-03-05T21:33:00,pth,16.80
2024-03-05T21:35:00,pth,16.80
2024-03-05T21:36:00,pth,9.60
2024-03-05T21:38:00,pth,15.60
2024-03-05T21:40:00,pth,16.80
2024-03-05T21:41:00,pth,7.20
2024-03-05T21:43:00,pth,16.80
2024-03-05T21:44:00,pth,7.20
2024-03-05T21:45:00,pth,8.40
2024-03-05T21:47:00,pth,15.60
2024-03-05T21:49:00,pth,15.60
2024-03-05T21:51:00,pth,15.60
2024-03-05T21:53:00,pth,15.60
2024-03-05T21:54:00,pth,7.20
2024-03-05T21:55:00,pth,8.40
2024-03-05T21:57:00,pth,15.60
2024-03-05T21:59:00,pth,15.60
2024-03-05T22:01:00,pth,15.60
2024-03-05T22:03:00,pth,16.80
2024-03-05T22:05:00,pth,4.80
2024-03-05T22:06:00,pth,2.40
2024-03-05T22:07:00,pth,3.60
2024-03-05T22:10:00,pth,4.80
2024-03-05T22:12:00,pth,4.80
2024-03-05T22:13:00,pth,4.80
2024-03-05T22:16:00,pth,4.80
2024-03-05T22:17:00,pth,3.60
2024-03-05T22:18:00,pth,3.60
2024-03-05T22:19:00,pth,4.80
2024-03-05T22:22:00,pth,4.80
2024-03-05T22:23:00,pth,3.60
2024-03-05T22:25:00,pth,7.20
2024-03-05T22:27:00,pth,4.80
2024-03-05T22:29:00,pth,6.00
2024-03-05T22:31:00,pth,7.20
2024-03-05T22:33:00,pth,7.20
2024-03-05T22:35:00,pth,6.00
2024-03-05T22:36:00,pth,2.40
2024-03-05T22:37:00,pth,4.80
2024-03-05T22:40:00,pth,6.00
2024-03-05T22:42:00,pth,4.80
2024-03-05T22:43:00,pth,6.00
2024-03-05T22:46:00,pth,4.80
2024-03-05T22:47:00,pth,2.40
2024-03-05T22:49:00,pth,8.40
2024-03-05T22:52:00,pth,4.80
2024-03-05T22:53:00,pth,2.40
2024-03-05T22:55:00,pth,6.00
2024-03-05T22:56:00,pth,2.40
2024-03-05T22:58:00,pth,6.00